Location: Natural Bridges National Monument
(37.6093°N, 109.9767°W)
Time: 01:24:06
(UTC-06:00)

USA 32 - Visible Passes

Search period start: 01 June 2016 00:00
Search period end: 11 June 2016 00:00
Orbit: 777 x 783 km, 85.0° (Epoch: 26 May)

Date Brightness Start Highest point End Pass type
(mag) Time Alt. Az. Time Alt. Az. Time Alt. Az.
01 Jun 4.5 01:33:15 10° N 01:37:45 55° NE 01:37:45 55° NE visible
01 Jun 6.1 03:16:17 10° NW 03:18:16 13° WNW 03:18:16 13° WNW visible
02 Jun 5.3 01:00:52 10° NNE 01:05:04 32° ENE 01:05:04 32° ENE visible
02 Jun 5.5 02:42:08 10° NNW 02:45:36 24° WNW 02:45:36 24° WNW visible
03 Jun 5.9 00:28:58 10° NNE 00:32:24 19° ENE 00:32:24 19° ENE visible
03 Jun 4.8 02:08:48 10° NNW 02:12:56 41° WNW 02:12:56 41° WNW visible
04 Jun 4.3 01:35:50 10° N 01:40:16 64° NNW 01:40:16 64° NNW visible
05 Jun 4.6 01:03:10 10° N 01:07:37 50° NE 01:07:37 50° NE visible
05 Jun 6.1 02:45:46 10° NW 02:48:09 15° WNW 02:48:09 15° WNW visible
06 Jun 5.4 00:30:51 10° NNE 00:34:59 29° ENE 00:34:59 29° ENE visible
06 Jun 5.5 02:11:51 10° NNW 02:15:30 27° WNW 02:15:30 27° WNW visible
06 Jun 6.0 23:59:05 10° NE 00:02:21 17° ENE 00:02:21 17° ENE visible
07 Jun 4.7 01:38:36 10° NNW 01:42:52 46° WNW 01:42:52 46° WNW visible
08 Jun 4.3 01:05:42 10° N 01:10:15 67° N 01:10:15 67° N visible
09 Jun 4.7 00:33:05 10° N 00:37:38 46° ENE 00:37:38 46° ENE visible
09 Jun 6.0 02:15:18 10° NW 02:18:10 17° WNW 02:18:10 17° WNW visible
10 Jun 5.4 00:00:51 10° NNE 00:05:01 26° ENE 00:05:01 26° ENE visible
10 Jun 5.3 01:41:35 10° NNW 01:45:33 30° WNW 01:45:33 30° WNW visible
10 Jun 6.0 23:29:17 10° NE 23:32:14 15° ENE 23:32:25 15° ENE visible
